Bangor, ME

6:23 AM EDT on July 24, 2017 (GMT -0400)
Bangor International

Weather History for KBGR - December, 2011

Change the Weather History Date:

Sunday, December 11, 2011

  Actual Average Record
Temperature  
Mean Temperature 25 °F 26 °F  
Max Temperature 32 °F 35 °F 59 °F (1966)
Min Temperature 17 °F 18 °F -19 °F (1929)
Degree Days  
Heating Degree Days 40 38  
Month to date heating degree days 336 398  
Since 1 July heating degree days 1624 2067  
Cooling Degree Days 0 0  
Month to date cooling degree days 0 0  
Year to date cooling degree days 348 318  
Moisture  
Dew Point 15 °F    
Average Humidity 67    
Maximum Humidity 84    
Minimum Humidity 49    
Precipitation  
Precipitation 0.00 in 0.12 in 1.81 in (1993)
Month to date precipitation 1.66 1.42  
Year to date precipitation 42.13 39.87  
Snow  
Snow 0.00 in 0.40 in 3.00 in (1994)
Month to date snowfall 2.2 4.2  
Since 1 July snowfall 17.8 6.6  
Snow Depth 0.00 in    
Sea Level Pressure  
Sea Level Pressure 30.52 in    
Wind  
Wind Speed 4 mph (SW)    
Max Wind Speed 14 mph    
Max Gust Speed 17 mph    
Visibility 10 miles    
Events      
T = Trace of Precipitation, MM = Missing Value Source: NWS Daily Summary

Daily Weather History Graph

Daily Weather History Graph

Search for Another Location

Airport or City:

Trip Planner

Search our weather history database for the weather conditions in past years. The results will help you decide how hot, cold, wet, or windy it might be!

Date:

Astronomy

Dec. 11, 2011 Rise Set
Actual Time 7:02 AM EST 3:54 PM EST
Civil Twilight 6:29 AM EST 4:27 PM EST
Nautical Twilight 5:52 AM EST 5:04 PM EST
Astronomical Twilight 5:16 AM EST 5:40 PM EST
Moon 5:01 PM EST (12/11) 7:48 AM EST (12/11)
Length of Visible Light 9h 58m
Length of Day
8h 51m
Full, 99% of the Moon is Illuminated
Dec 11
Full
Dec 17
Last Quarter
Dec 24
New
Jan 1
First Quarter
Jan 9
Full

Hourly Weather History & Observations

Time (EST) Temp. Windchill Dew Point Humidity Pressure Visibility Wind Dir Wind Speed Gust Speed Precip Events Conditions
12:53 AM 21.0 °F 16.2 °F 16.0 °F 81% 30.38 in 10.0 mi SW 3.5 mph - N/A   Clear
1:53 AM 21.0 °F 16.2 °F 15.1 °F 78% 30.40 in 10.0 mi WSW 3.5 mph - N/A   Clear
2:53 AM 19.9 °F - 15.1 °F 81% 30.42 in 10.0 mi Calm Calm - N/A   Clear
3:53 AM 18.0 °F - 14.0 °F 84% 30.44 in 10.0 mi Calm Calm - N/A   Clear
4:53 AM 21.0 °F 14.6 °F 14.0 °F 74% 30.47 in 10.0 mi West 4.6 mph - N/A   Clear
5:53 AM 19.0 °F - 12.9 °F 77% 30.50 in 10.0 mi Calm Calm - N/A   Clear
6:53 AM 19.0 °F 12.3 °F 12.9 °F 77% 30.53 in 10.0 mi NW 4.6 mph - N/A   Partly Cloudy
7:53 AM 21.9 °F - 14.0 °F 72% 30.55 in 10.0 mi Calm Calm - N/A   Partly Cloudy
8:53 AM 24.1 °F 18.2 °F 12.9 °F 62% 30.58 in 10.0 mi NNW 4.6 mph - N/A   Partly Cloudy
9:53 AM 27.0 °F 19.5 °F 12.9 °F 56% 30.59 in 10.0 mi NW 6.9 mph - N/A   Partly Cloudy
10:53 AM 28.0 °F 22.8 °F 12.0 °F 51% 30.58 in 10.0 mi NW 4.6 mph - N/A   Partly Cloudy
11:53 AM 30.0 °F 21.7 °F 15.1 °F 54% 30.56 in 10.0 mi WSW 9.2 mph - N/A   Partly Cloudy
12:53 PM 30.9 °F 25.2 °F 15.1 °F 52% 30.55 in 10.0 mi Variable 5.8 mph - N/A   Scattered Clouds
1:53 PM 32.0 °F 27.5 °F 16.0 °F 52% 30.54 in 10.0 mi West 4.6 mph - N/A   Scattered Clouds
2:53 PM 32.0 °F 25.6 °F 15.1 °F 50% 30.56 in 10.0 mi West 6.9 mph - N/A   Scattered Clouds
3:53 PM 28.9 °F - 16.0 °F 58% 30.55 in 10.0 mi Calm Calm - N/A   Clear
4:53 PM 25.0 °F 19.3 °F 16.0 °F 69% 30.55 in 10.0 mi SSE 4.6 mph - N/A   Clear
5:53 PM 26.1 °F 18.4 °F 16.0 °F 66% 30.55 in 10.0 mi SSE 6.9 mph - N/A   Clear
6:53 PM 26.1 °F 20.5 °F 16.0 °F 66% 30.54 in 10.0 mi South 4.6 mph - N/A   Scattered Clouds
7:53 PM 27.0 °F 19.5 °F 16.0 °F 63% 30.53 in 10.0 mi South 6.9 mph - N/A   Clear
8:53 PM 27.0 °F 21.6 °F 16.0 °F 63% 30.52 in 10.0 mi South 4.6 mph - N/A   Clear
9:53 PM 27.0 °F 19.5 °F 16.0 °F 63% 30.51 in 10.0 mi South 6.9 mph - N/A   Clear
10:53 PM 28.0 °F 19.3 °F 16.0 °F 61% 30.51 in 10.0 mi South 9.2 mph - N/A   Clear
11:53 PM 26.6 °F 21.2 °F 17.6 °F 69% 30.49 in 10.0 mi South 4.6 mph - N/A   Partly Cloudy